Location: Bangolosso
(13.0274°N, 4.8565°W)
Time: 02:46:04
(UTC+00:00)

Daily predictions for brighter satellites

Satellite Brightness Start Highest point End
(mag) Time Altitude Azimuth Time Altitude Azimuth Time Altitude Azimuth
ARIANE 5 R/B 4.1 03:24:13 32° SE 03:24:13 32° SE 03:37:15 10° E
Cosmos 2082 Rocket 3.9 03:52:14 23° NE 03:52:14 23° NE 03:54:21 10° NNE
ARIANE 5 DEB (SYLDA) 4.3 03:53:05 31° S 03:53:05 31° S 03:56:30 10° SE
Cosmos 2251 Rocket 4.3 04:00:10 49° ESE 04:00:18 49° E 04:05:27 10° NNE
Meteor 2-5 Rocket 4.1 04:12:00 10° S 04:17:29 61° E 04:23:05 10° NNE
Cosmos 1331 Rocket 4.4 04:17:43 42° NNE 04:19:16 60° ENE 04:24:26 10° SSE
Delta 168 4.3 04:28:37 26° ENE 04:28:37 26° ENE 04:30:33 10° E
ATLAS 3B R/B 4.2 04:32:59 17° NNW 04:32:59 17° NNW 04:34:39 10° N
Meteor 1-31 Rocket 4.4 04:27:58 10° NNE 04:31:33 35° E 04:35:08 10° SSE
ATLAS CENTAUR R/B 3.1 04:31:57 10° S 04:35:47 32° ESE 04:39:24 10° NE
Cosmos 1092 Rocket 4.3 04:30:36 10° S 04:36:38 64° E 04:42:43 10° NNE
FUSE 4.2 04:37:22 48° NNW 04:37:32 48° NNW 04:42:41 10° NE
ADEOS Rocket 3.0 04:33:08 10° SSE 04:38:47 68° ENE 04:44:12 10° N
FENGYUN 3A 3.7 04:34:04 10° NNE 04:39:30 81° ESE 04:44:55 10° S
Nadezhda 4 Rocket 3.9 04:34:48 10° SSW 04:40:48 61° W 04:46:49 10° N
Cosmos 292 Rocket 3.7 04:41:57 25° N 04:44:49 87° ENE 04:49:38 10° SSE
GPS 2-15 Rocket1 3.4 04:46:30 40° SW 04:48:08 67° SSE 04:53:03 10° E
Cosmos 1110 Rocket 4.0 04:47:17 45° WNW 04:48:17 52° WSW 04:53:19 10° S
Maqsat-B 3.5 04:47:55 29° SSW 04:48:55 35° S 04:53:13 10° ESE
CZ-3 R/B 4.0 04:35:58 28° WNW 04:50:19 45° NNW 04:59:28 10° NE
BREEZE-M DEB (TANK) 2.9 04:49:51 27° SSW 04:51:20 61° ESE 04:58:13 10° NE
H-2A R/B 2.1 04:53:44 10° S 04:58:11 63° WSW 05:02:03 13° NNW
X-37B 3.2 04:56:51 10° S 04:59:19 21° SE 05:01:48 10° E
CZ-2C R/B 2.3 04:58:32 21° N 04:59:34 26° NNE 05:02:21 10° E
CZ-4B R/B 3.5 04:57:18 10° SE 05:00:19 29° ENE 05:03:20 10° NNE
ADEOS 3.6 04:55:22 10° N 05:00:24 52° WNW 05:05:27 10° SSW
Maqsat-H 2.6 04:59:27 23° SW 05:01:07 37° S 05:05:42 10° ESE
Cosmos 1908 3.2 05:00:58 22° NNW 05:03:15 55° W 05:07:03 10° S
SEDSat Delta rocket 4.5 05:04:12 18° SW 05:04:40 18° SW 05:07:30 10° S
CZ-4B R/B 3.7 05:01:47 10° N 05:05:41 62° WNW 05:09:24 10° SSW
Palapa 6 Rocket 4.1 05:05:49 21° NNW 05:06:43 23° N 05:10:03 10° NE
Stardust Del rocket 3.2 05:09:43 32° NNW 05:09:58 32° N 05:12:59 10° NE
Landsat 5 4.3 05:09:46 10° SSW 05:13:22 29° W 05:14:34 24° WNW
Cosmos 1300 3.6 05:14:42 10° N 05:18:24 50° E 05:22:06 10° SSE
ARGOS Delta rocket 4.1 05:14:17 10° N 05:19:43 67° W 05:25:04 10° SSW
Okean 1-7 Rocket 3.6 05:16:39 10° S 05:21:11 70° W 05:25:42 10° N
ALOS 3.0 05:17:52 10° NNW 05:21:52 29° WNW 05:25:51 10° SW
SL-27 R/B 3.8 05:19:12 10° S 05:22:34 44° E 05:25:59 10° NNE
Cosmos 1428 Rocket 4.5 05:19:12 10° SSW 05:25:23 63° W 05:31:32 10° N
GPS 2-17 Rocket1 3.2 05:24:57 17° WNW 05:28:24 69° NNE 05:33:03 10° E
Meteor 1-24 Rocket 4.4 05:24:20 10° SW 05:28:59 29° W 05:33:47 10° NNW
Cosmos 1892 Rocket 4.2 05:25:59 10° SSW 05:29:48 31° W 05:33:39 10° NNW
Delta 128 3.9 05:28:22 13° NW 05:32:16 62° NNE 05:37:02 10° ESE
Intercosmos 24 3.9 05:28:48 10° NNW 05:32:23 61° W 05:36:52 10° S
ARIANE 5 R/B 3.7 05:27:24 10° WSW 05:33:58 21° SSW 05:36:35 10° SSE
H-2A R/B 3.9 05:32:58 10° NNE 05:36:54 41° E 05:40:43 10° S
SJ-12 4.4 05:33:45 10° N 05:37:30 36° WNW 05:41:14 10° SW
Cosmos 2026 Rocket 4.3 05:31:46 10° SSW 05:37:44 44° W 05:43:45 10° NNW
Cosmos 2058 Rocket 4.0 05:34:37 10° N 05:38:58 53° E 05:43:16 10° SSE
Ariane H10 2.4 05:41:22 10° SSW 05:41:55 11° S 05:42:32 10° SSE
H-2A R/B 3.1 05:39:44 10° NNE 05:43:35 74° ESE 05:47:27 10° S
SKYMED 2 4.3 05:41:09 10° SSE 05:45:25 59° ENE 05:49:40 10° N
Cosmos 1656 4.3 05:40:22 10° NW 05:45:28 35° WSW 05:50:31 10° SSW
Cosmos 2369 3.9 05:39:51 10° NNW 05:45:29 81° ENE 05:51:07 10° SSE
Meteor PRIRODA 4.4 05:46:41 10° NNW 05:49:57 31° WNW 05:53:15 10° SW
GPS 2-18 Rocket1 4.0 05:50:11 10° WNW 05:53:33 32° N 05:56:52 10° NE
Cosmos 1626 Rocket 3.6 05:49:24 10° SSW 05:53:45 62° W 05:58:10 10° N
SJ-7 4.3 05:50:15 10° N 05:54:12 87° WNW 05:58:11 10° SSW
USA 267 4.1 05:51:32 10° NE 05:57:55 57° SE 06:04:18 10° SSW
